Regional Weather Roundup
Issued by NWS Huntsville, AL

Home | Current Version | Previous Version | Text Only | Print | Product List | Glossary On
Versions: 1 2 3 4 5 6 7 8 9 10 11 12 13 14 15 16 17 18 19 20 21 22 23 24 25 26 27 28 29 30 31 32 33 34 35 36 37 38 39 40 41 42 43 44 45 46 47 48 49 50
000
ASUS44 KHUN 240510
RWRHUN

WEATHER ROUNDUP FOR THE TENNESSEE VALLEY
NATIONAL WEATHER SERVICE HUNTSVILLE AL
1100 PM CST THU FEB 23 2017

ALZ001>004-240600-
NORTHWEST ALABAMA

CITY           SKY/WX    TMP DP  RH WIND       PRES   REMARKS
COURTLAND HCN    N/A     63 N/A N/A S6          N/A
RUSSELLVILLE     N/A     63 N/A N/A MISG        N/A
SHOALS AIRPORT CLEAR     63  55  75 S7        29.78S
SHOALS TVA RES   N/A     61 N/A N/A MISG        N/A
$$

ALZ005>007-016-240600-
NORTH CENTRAL ALABAMA

CITY           SKY/WX    TMP DP  RH WIND       PRES   REMARKS
CULLMAN AG STN   N/A     61 N/A N/A SE5         N/A
DECATUR AP     CLEAR     57  55  93 SE5       29.80S
HUNTSVILLE AP  CLEAR     60  56  86 SE7       29.80S
MERIDIANVILLE  CLEAR     63  54  72 S6        29.81S
REDSTONE ARSN  CLEAR     62  56  83 S6        29.79F
VINEMONT AP    FAIR      61  55  81 SE6       29.83F
$$

ALZ008>010-240600-
NORTHEAST ALABAMA

CITY           SKY/WX    TMP DP  RH WIND       PRES   REMARKS
ALBERTVILLE    CLEAR     59  59 100 SE6       29.83S
FORT PAYNE     CLEAR     52  48  87 CALM      29.85S
SCOTTSBORO AP  CLEAR     55  55 100 CALM      29.84S
SCOTTSBORO HCN   N/A     54 N/A N/A MISG        N/A
VALLEY HEAD      N/A     55 N/A N/A MISG        N/A
$$

TNZ076-096-097-240600-
SOUTHEASTERN MIDDLE TENNESSEE

CITY           SKY/WX    TMP DP  RH WIND       PRES   REMARKS
TULLAHOMA      CLEAR     63  54  72 S10       29.81S
WINCHESTER     CLEAR     57  54  88 SE5       29.82S
$$

...SURROUNDING SITES...

CITY           SKY/WX    TMP DP  RH WIND       PRES   REMARKS
ATLANTA        PTCLDY    63  52  67 SE3       29.88S
ANNISTON       CLEAR     57  55  93 E3        29.86R
BIRMINGHAM     CLEAR     65  57  75 SE7       29.84F
CHATTANOOGA    CLEAR     58  52  80 S3        29.84S
CORINTH        FAIR      61  55  82 S7        29.73S
DALTON         PTCLDY    63  52  67 SE9       29.86S
GADSDEN        CLEAR     55  54  96 CALM      29.85S
GOLDEN TRNGL   CLEAR     61  54  77 S10       29.73S
HALEYVILLE     FAIR      61  56  83 S9        29.81F
JACKSON TN     CLEAR     64  58  80 S10G21    29.70F
MEMPHIS        CLEAR     64  60  87 S12       29.68S
NASHVILLE      PTCLDY    64  54  69 S13       29.76S
OXFORD MS      FAIR      61  57  88 S12G17    29.74S
ROME           CLEAR     56  52  86 CALM      29.85S
SAVANNAH       CLOUDY    63  57  82 S8        29.73S
TUPELO         CLEAR     63  56  78 SE13      29.74F
TUSCALOOSA     CLEAR     62  58  86 CALM      29.80F
$$

...GULF COAST WEATHER...

CITY           SKY/WX    TMP DP  RH WIND       PRES   REMARKS
GULFPORT       CLEAR     65  64  97 S6        29.82F
PASCAGOULA     FOG       54  53  97 CALM      29.83F VSB 3/4
MOBILE         FOG       62  61  96 S7        29.84F VSB 3/4
GULF SHORES    FOG       57  57 100 CALM      29.85S VSB 1/4
PENSACOLA      CLEAR     61  59  94 CALM      29.84S FOG
DESTIN         CLEAR     66  66 100 NW3       29.84S
PANAMA CITY    CLEAR     62  60  93 CALM      29.83S
APPALACHICOLA  CLEAR     63  62  97 E5        29.83R
$$




USA.gov is the U.S. government's official web portal to all federal, state and local government web resources and services.